CW8216 Weather Reports


time (UTC)temp
C
wind
direction
speed
KPH
gust
KPH
rain 1hr
cm
rain 24hr
cm
rain mn
cm
humidity
%
barometer
mb
20260503204557 8 339 1.6 4.8 0.00 0.08 0.00 91 1016.3
20260503204039 8 348 3.2 6.4 0.00 0.08 0.00 91 1016.3
20260503203539 8 342 3.2 6.4 0.00 0.08 0.00 91 1016.3
20260503203053 8 25 3.2 6.4 0.00 0.08 0.00 90 1016.2
20260503202539 8 346 4.8 8.0 0.00 0.08 0.00 90 1016.2
20260503202039 8 23 4.8 8.0 0.00 0.08 0.00 90 1016.1
20260503201551 8 347 4.8 8.0 0.00 0.08 0.00 91 1016.0
20260503201039 8 13 3.2 8.0 0.00 0.08 0.00 91 1016.1
20260503200540 8 2 4.8 8.0 0.00 0.08 0.00 91 1016.1
20260503200053 8 326 4.8 8.0 0.00 0.08 0.00 91 1016.2
20260503195540 8 30 4.8 9.7 0.00 0.08 0.00 92 1016.1
20260503195040 8 35 4.8 9.7 0.00 0.08 0.00 92 1016.1
20260503194549 7 333 4.8 8.0 0.00 0.08 0.00 91 1016.0
20260503194039 7 342 4.8 6.4 0.00 0.08 0.00 91 1016.0
20260503193539 7 340 3.2 6.4 0.00 0.08 0.00 91 1016.1
20260503193110 7 359 1.6 4.8 0.00 0.08 0.00 91 1016.0
20260503192538 7 358 3.2 4.8 0.00 0.08 0.00 91 1016.0
20260503192040 7 11 3.2 4.8 0.00 0.08 0.00 91 1016.0
20260503191553 7 14 3.2 4.8 0.00 0.08 0.00 90 1016.0
20260503191039 7 26 1.6 4.8 0.00 0.08 0.00 90 1016.0
20260503190540 7 26 1.6 4.8 0.00 0.08 0.00 90 1016.0
20260503190105 7 31 1.6 4.8 0.00 0.08 0.00 89 1016.0
20260503185539 7 31 3.2 4.8 0.00 0.08 0.00 89 1015.9
20260503185042 7 31 1.6 4.8 0.00 0.08 0.00 89 1015.9
20260503184553 7 31 3.2 4.8 0.00 0.08 0.00 88 1015.9
20260503184040 8 32 1.6 3.2 0.00 0.08 0.00 88 1015.8
20260503183539 8 32 0.0 3.2 0.00 0.08 0.00 88 1015.8
20260503183101 8 32 0.0 3.2 0.00 0.08 0.00 87 1015.9
20260503182536 8 32 1.6 3.2 0.00 0.08 0.00 87 1015.9
20260503182039 8 32 1.6 3.2 0.00 0.08 0.00 87 1016.0
20260503181547 8 35 0.0 3.2 0.00 0.08 0.00 87 1016.0
20260503181040 8 37 0.0 3.2 0.00 0.08 0.00 87 1016.0
20260503180540 9 9 0.0 4.8 0.00 0.08 0.00 87 1016.0
20260503180056 9 23 1.6 4.8 0.00 0.08 0.00 86 1016.0
20260503175540 9 24 1.6 4.8 0.00 0.08 0.00 86 1016.0
20260503175039 9 352 1.6 4.8 0.00 0.08 0.00 87 1016.0
20260503174547 9 333 1.6 4.8 0.00 0.08 0.00 86 1016.0
20260503174041 9 355 1.6 6.4 0.00 0.08 0.00 86 1016.0
20260503173543 8 45 1.6 6.4 0.00 0.08 0.00 86 1016.1
20260503173109 8 352 1.6 6.4 0.00 0.08 0.00 86 1016.1
20260503172540 8 34 3.2 6.4 0.00 0.08 0.00 86 1016.1
20260503172042 8 6 3.2 6.4 0.00 0.08 0.00 85 1016.1
20260503171552 8 5 3.2 6.4 0.00 0.08 0.00 85 1016.1
20260503171040 9 13 3.2 6.4 0.00 0.08 0.00 84 1016.2
20260503170541 9 15 3.2 6.4 0.00 0.08 0.00 85 1016.1
20260503150537 10 319 3.2 6.4 0.00 0.08 0.00 84 1016.4
20260503131038 12 336 1.6 9.7 0.00 0.08 0.08 82 1017.0
20260503130539 12 319 4.8 9.7 0.00 0.08 0.08 83 1017.0
20260503110543 13 40 1.6 4.8 0.00 0.00 0.00 69 1016.3
20260503100104 14 349 8.0 16.1 0.00 0.00 0.00 62 1015.5
20260503081549 16 316 9.7 16.1 0.00 0.00 0.00 51 1014.4
20260503081037 16 314 8.0 20.9 0.00 0.00 0.00 51 1014.4
20260503080544 16 304 9.7 20.9 0.00 0.00 0.00 51 1014.4
20260503072539 16 326 8.0 20.9 0.00 0.00 0.00 49 1014.3
20260503072041 16 301 8.0 27.4 0.00 0.00 0.00 48 1014.2
20260503071607 17 303 12.9 27.4 0.00 0.00 0.00 47 1014.2
20260503071041 17 314 12.9 20.9 0.00 0.00 0.00 47 1014.2
20260503070539 17 295 9.7 17.7 0.00 0.00 0.00 46 1014.1
20260503055041 18 307 12.9 25.7 0.00 0.00 0.00 42 1014.2
20260503054556 18 302 8.0 24.1 0.00 0.00 0.00 43 1014.0
20260503054041 18 289 12.9 24.1 0.00 0.00 0.00 43 1014.1
20260503053541 18 295 8.0 22.5 0.00 0.00 0.00 43 1014.0
20260503053058 18 319 12.9 22.5 0.00 0.00 0.00 43 1014.1
20260503052542 18 304 11.3 20.9 0.00 0.10 0.00 43 1014.0
20260503052041 18 306 8.0 17.7 0.00 0.10 0.00 45 1014.0
20260503051557 17 236 11.3 20.9 0.00 0.10 0.00 44 1014.0
20260503051041 18 245 9.7 22.5 0.00 0.10 0.00 44 1014.1
20260503050545 18 316 11.3 22.5 0.00 0.10 0.00 43 1014.0
20260503050100 18 258 9.7 22.5 0.00 0.10 0.00 43 1013.9
20260503045541 18 250 9.7 22.5 0.00 0.10 0.00 43 1014.0
20260503045040 18 292 9.7 20.9 0.00 0.10 0.00 44 1013.9
20260503044554 18 304 9.7 19.3 0.00 0.10 0.00 44 1013.9
20260503044043 17 245 8.0 25.7 0.00 0.10 0.00 44 1013.8
20260503043541 18 296 9.7 25.7 0.00 0.10 0.00 43 1013.9
20260503043055 18 300 9.7 22.5 0.00 0.10 0.00 44 1013.9
20260503042541 17 312 11.3 22.5 0.00 0.10 0.00 44 1013.9
20260503042041 18 334 12.9 22.5 0.00 0.10 0.00 44 1014.0
20260503041556 18 307 9.7 19.3 0.00 0.10 0.00 44 1014.0
20260503041040 18 321 9.7 19.3 0.00 0.10 0.00 44 1014.1
20260503040540 17 284 9.7 19.3 0.00 0.10 0.00 43 1014.1
20260503040055 17 309 8.0 19.3 0.00 0.10 0.00 45 1014.2
20260503035541 17 278 8.0 24.1 0.00 0.10 0.00 45 1014.1
20260503035041 17 259 11.3 24.1 0.00 0.10 0.00 45 1014.2
20260503034550 17 326 11.3 20.9 0.00 0.10 0.00 44 1014.4
20260503034042 17 266 11.3 22.5 0.00 0.10 0.00 44 1014.4
20260503033542 17 314 9.7 25.7 0.00 0.10 0.00 47 1014.5
20260503033051 17 326 11.3 25.7 0.00 0.10 0.00 45 1014.6
20260503032540 17 308 12.9 22.5 0.00 0.13 0.00 46 1014.7
20260503032040 17 314 9.7 22.5 0.00 0.13 0.00 47 1014.7
20260503031550 17 290 9.7 24.1 0.00 0.13 0.00 47 1014.9
20260503031041 17 311 12.9 24.1 0.00 0.13 0.00 46 1014.9
20260503030540 17 321 12.9 22.5 0.00 0.13 0.00 47 1015.0
20260503030051 17 227 9.7 27.4 0.00 0.13 0.00 48 1015.0
20260503025540 17 306 9.7 27.4 0.00 0.13 0.00 48 1015.0
20260503025041 17 19 11.3 24.1 0.00 0.13 0.00 52 1015.0
20260503024600 16 329 11.3 25.7 0.00 0.13 0.00 53 1015.1
20260503024040 16 333 9.7 25.7 0.00 0.13 0.00 53 1015.2
20260503023539 16 291 12.9 25.7 0.00 0.13 0.00 53 1015.3
20260503023052 16 17 9.7 29.0 0.00 0.13 0.00 55 1015.3
20260503022540 16 300 14.5 29.0 0.00 0.13 0.00 53 1015.4
20260503022038 16 308 11.3 22.5 0.00 0.13 0.00 52 1015.4
20260503021550 16 313 9.7 27.4 0.00 0.13 0.00 55 1015.5
20260503021039 16 325 12.9 27.4 0.00 0.13 0.00 54 1015.4
20260503020544 16 234 11.3 22.5 0.00 0.13 0.00 54 1015.7
20260503020056 16 301 11.3 20.9 0.00 0.13 0.00 53 1015.6
20260503015540 16 309 11.3 27.4 0.00 0.13 0.00 53 1015.7
20260503015043 16 290 11.3 27.4 0.00 0.13 0.00 53 1015.6
20260503014614 15 294 11.3 27.4 0.00 0.13 0.00 52 1015.6
20260503014039 15 291 12.9 25.7 0.00 0.13 0.00 53 1015.7
20260503013541 15 299 12.9 29.0 0.00 0.13 0.00 54 1015.7
20260503013050 15 314 9.7 29.0 0.00 0.13 0.00 54 1015.7
20260503012543 15 314 11.3 29.0 0.00 0.15 0.00 54 1015.8
20260503012040 15 303 8.0 19.3 0.00 0.15 0.00 55 1015.9
20260503011558 15 355 11.3 25.7 0.00 0.15 0.00 54 1015.7
20260503011039 15 244 12.9 25.7 0.00 0.15 0.00 54 1015.6
20260503010541 15 302 11.3 22.5 0.00 0.15 0.00 54 1015.7
20260503010054 15 318 8.0 24.1 0.00 0.15 0.00 55 1015.7
20260503005541 15 203 12.9 24.1 0.00 0.15 0.00 55 1015.7
20260503005041 15 288 11.3 20.9 0.00 0.15 0.00 54 1015.9
20260503004557 15 238 11.3 22.5 0.00 0.15 0.00 56 1015.9
20260503004039 15 244 9.7 22.5 0.00 0.15 0.00 56 1016.0
20260503003539 15 285 8.0 19.3 0.00 0.15 0.00 57 1016.1
20260503003100 14 331 9.7 19.3 0.00 0.15 0.00 57 1016.2
20260503002539 14 213 9.7 17.7 0.00 0.20 0.00 58 1016.3
20260503002041 14 287 6.4 12.9 0.00 0.20 0.00 58 1016.3
20260503001554 14 288 6.4 12.9 0.00 0.20 0.00 61 1016.4
20260503001038 13 286 6.4 11.3 0.00 0.20 0.00 64 1016.4
20260503000542 13 298 4.8 16.1 0.00 0.20 0.00 67 1016.3
20260503000049 13 311 6.4 16.1 0.00 0.20 0.00 66 1016.3
20260502235541 13 307 4.8 9.7 0.00 0.20 0.00 68 1016.3
20260502235039 13 304 4.8 9.7 0.00 0.20 0.00 67 1016.4
20260502234550 13 1 4.8 11.3 0.00 0.20 0.00 68 1016.4
20260502234039 13 304 4.8 16.1 0.00 0.20 0.00 70 1016.3
20260502233541 12 304 6.4 16.1 0.00 0.20 0.00 71 1016.4
20260502233053 12 8 6.4 16.1 0.00 0.20 0.00 71 1016.4
20260502232541 12 356 3.2 8.0 0.00 0.20 0.00 72 1016.2
20260502232039 12 314 3.2 8.0 0.00 0.20 0.00 73 1016.3
20260502231553 12 311 3.2 9.7 0.00 0.20 0.00 74 1016.2
20260502231042 11 342 4.8 9.7 0.00 0.20 0.00 75 1016.0
20260502230542 11 312 1.6 9.7 0.00 0.20 0.00 76 1016.0
20260502230055 11 0 1.6 12.9 0.00 0.20 0.00 78 1016.0
20260502225541 11 340 3.2 12.9 0.00 0.20 0.00 79 1015.9
20260502225041 11 335 3.2 9.7 0.00 0.20 0.00 80 1015.8
20260502224604 10 291 3.2 9.7 0.00 0.20 0.00 83 1015.8
20260502224039 10 357 3.2 6.4 0.00 0.20 0.00 83 1015.7
20260502223541 10 44 0.0 9.7 0.00 0.20 0.00 84 1015.8
20260502223046 9 0 0.0 9.7 0.00 0.20 0.00 84 1015.7
20260502222539 9 41 0.0 4.8 0.00 0.20 0.00 84 1015.6
20260502222041 9 47 1.6 4.8 0.00 0.20 0.00 82 1015.5
20260502221550 9 28 1.6 4.8 0.00 0.20 0.00 81 1015.4
20260502221042 10 6 3.2 8.0 0.00 0.20 0.00 80 1015.4
20260502220545 10 350 3.2 8.0 0.00 0.20 0.00 80 1015.3
20260502220049 10 307 3.2 8.0 0.00 0.20 0.00 80 1015.3
20260502215541 9 305 3.2 11.3 0.00 0.20 0.00 81 1015.0
20260502215045 9 331 4.8 11.3 0.00 0.20 0.00 81 1015.0
20260502214550 9 308 3.2 9.7 0.00 0.20 0.00 82 1015.0
20260502214038 8 315 1.6 9.7 0.00 0.20 0.00 82 1014.9
20260502213541 8 314 3.2 9.7 0.00 0.20 0.00 82 1014.9
20260502213103 8 314 1.6 9.7 0.00 0.20 0.00 81 1015.0
20260502212539 9 309 4.8 8.0 0.00 0.20 0.00 81 1014.9
20260502212043 8 0 3.2 6.4 0.00 0.20 0.00 82 1014.9
20260502211601 9 316 1.6 6.4 0.00 0.20 0.00 81 1015.0
20260502211042 9 309 1.6 6.4 0.00 0.20 0.00 81 1014.9
20260502210559 9 308 3.2 6.4 0.00 0.20 0.00 80 1014.7
20260502210049 9 314 0.0 4.8 0.00 0.20 0.00 80 1014.7
20260502205537 10 319 1.6 4.8 0.00 0.20 0.00 80 1014.7
20260502205040 10 304 0.0 8.0 0.00 0.20 0.00 80 1014.6